Location: *
(51.1248°S, 108.4023°W)
Time: 23:14:15
(UTC+00:00)

Cosmos 2181 Rocket - Visible Passes

Search period start: 23 October 2021 00:00
Search period end: 02 November 2021 00:00
Orbit: 952 x 1014 km, 82.9° (Epoch: 23 October)

Date Brightness Start Highest point End Pass type
(mag) Time Alt. Az. Time Alt. Az. Time Alt. Az.
23 Oct 6.8 07:47:09 10° SSE 07:49:02 11° SE 07:50:54 10° ESE visible
23 Oct 4.8 09:30:12 10° S 09:36:19 50° ESE 09:42:18 10° NNE visible
23 Oct 4.7 11:16:10 10° SSW 11:21:39 33° W 11:27:03 10° NNW visible
24 Oct 6.4 08:13:19 10° SSE 08:17:35 19° ESE 08:21:47 10° E visible
24 Oct 4.0 09:57:54 10° S 10:04:12 84° E 10:10:23 10° N visible
25 Oct 5.7 08:40:28 10° S 08:45:55 30° ESE 08:51:15 10° NE visible
25 Oct 4.1 10:25:46 10° SSW 10:31:53 58° W 10:37:54 10° N visible
26 Oct 6.7 07:25:05 10° SE 07:26:42 11° SE 07:28:18 10° ESE visible
26 Oct 4.8 09:07:57 10° S 09:14:00 49° ESE 09:19:58 10° NNE visible
26 Oct 4.7 10:53:52 10° SSW 10:59:22 34° W 11:04:49 10° NNW visible
27 Oct 6.4 07:51:06 10° SSE 07:55:16 18° ESE 07:59:22 10° E visible
27 Oct 4.0 09:35:37 10° S 09:41:54 82° E 09:48:05 10° NNE visible
28 Oct 5.7 08:18:13 10° S 08:23:36 29° ESE 08:28:53 10° NE visible
28 Oct 4.1 10:03:28 10° SSW 10:09:36 60° W 10:15:38 10° N visible
29 Oct 6.7 07:03:04 10° SE 07:04:22 11° SE 07:05:39 10° ESE visible
29 Oct 4.8 08:45:40 10° S 08:51:42 48° ESE 08:57:38 10° NNE visible
29 Oct 4.7 10:31:34 10° SSW 10:37:06 35° W 10:42:34 10° NNW visible
30 Oct 6.3 07:28:52 10° SSE 07:32:56 18° ESE 07:36:58 10° E visible
30 Oct 4.0 09:13:20 10° S 09:19:36 80° E 09:25:35 11° NNE visible
30 Oct 5.3 11:00:02 10° SW 11:04:24 20° W 11:08:45 10° NW visible
31 Oct 5.7 07:55:57 10° S 08:01:17 28° ESE 08:06:32 10° ENE visible
31 Oct 4.0 09:41:11 10° SSW 09:47:19 61° W 09:52:40 13° N visible
01 Nov 6.7 06:41:08 10° SE 06:42:02 10° SE 06:42:55 10° ESE visible
01 Nov 4.8 08:23:24 10° S 08:29:24 47° ESE 08:35:00 11° NE visible
01 Nov 4.7 10:09:15 10° SSW 10:14:49 36° W 10:19:48 12° NNW visible
